TimeCST,TemperatureF,Dew PointF,Humidity,Sea Level PressureIn,VisibilityMPH,Wind Direction,Wind SpeedMPH,Gust SpeedMPH,PrecipitationIn,Events,Conditions,WindDirDegrees,DateUTC
12:15 AM,41.0,21.2,45,30.09,10.0,South,13.8,-,N/A,,Clear,180,2012-12-13 06:15:00
12:35 AM,41.0,21.2,45,30.09,10.0,South,15.0,-,N/A,,Clear,180,2012-12-13 06:35:00
12:55 AM,39.2,21.2,49,30.10,10.0,South,15.0,-,N/A,,Clear,180,2012-12-13 06:55:00
1:15 AM,37.4,23.0,56,30.09,10.0,South,13.8,-,N/A,,Clear,180,2012-12-13 07:15:00
1:35 AM,39.2,23.0,52,30.09,10.0,South,16.1,-,N/A,,Clear,180,2012-12-13 07:35:00
1:55 AM,37.4,23.0,56,30.09,10.0,South,13.8,-,N/A,,Clear,180,2012-12-13 07:55:00
2:15 AM,39.2,23.0,52,30.09,10.0,South,15.0,-,N/A,,Clear,180,2012-12-13 08:15:00
2:35 AM,39.2,23.0,52,30.09,10.0,South,16.1,-,N/A,,Clear,180,2012-12-13 08:35:00
2:55 AM,37.4,23.0,56,30.09,10.0,South,13.8,-,N/A,,Clear,180,2012-12-13 08:55:00
3:15 AM,37.4,23.0,56,30.09,10.0,South,15.0,-,N/A,,Clear,180,2012-12-13 09:15:00
3:35 AM,39.2,23.0,52,30.08,10.0,South,16.1,-,N/A,,Clear,180,2012-12-13 09:35:00
3:55 AM,37.4,23.0,56,30.08,10.0,South,13.8,-,N/A,,Clear,180,2012-12-13 09:55:00
4:15 AM,37.4,23.0,56,30.07,10.0,South,16.1,-,N/A,,Clear,190,2012-12-13 10:15:00
4:35 AM,37.4,23.0,56,30.07,10.0,South,16.1,-,N/A,,Clear,180,2012-12-13 10:35:00
4:55 AM,41.0,23.0,49,30.06,10.0,South,18.4,-,N/A,,Clear,180,2012-12-13 10:55:00
6:20 AM,39.2,23.0,52,30.08,10.0,South,17.3,25.3,N/A,,Clear,190,2012-12-13 12:20:00
7:50 AM,37.4,23.0,56,30.08,10.0,South,20.7,27.6,N/A,,Clear,190,2012-12-13 13:50:00
8:50 AM,41.0,23.0,49,30.11,10.0,South,20.7,27.6,N/A,,Clear,190,2012-12-13 14:50:00
9:55 AM,46.4,23.0,40,30.10,10.0,South,21.9,32.2,N/A,,Clear,190,2012-12-13 15:55:00
10:50 AM,51.8,24.8,35,30.11,10.0,SSW,21.9,32.2,N/A,,Clear,200,2012-12-13 16:50:00
11:50 AM,55.4,24.8,31,30.09,10.0,South,21.9,31.1,N/A,,Clear,190,2012-12-13 17:50:00
12:50 PM,59.0,26.6,29,30.06,10.0,South,24.2,32.2,N/A,,Clear,190,2012-12-13 18:50:00
1:50 PM,62.6,26.6,26,30.04,10.0,South,23.0,31.1,N/A,,Clear,190,2012-12-13 19:50:00
2:55 PM,62.6,28.4,27,30.02,10.0,South,18.4,25.3,N/A,,Clear,180,2012-12-13 20:55:00
3:59 PM,62.6,28.4,27,30.02,10.0,South,19.6,26.5,N/A,,Clear,170,2012-12-13 21:59:00
7:50 PM,44.6,26.6,49,30.07,10.0,South,11.5,-,N/A,,Clear,190,2012-12-14 01:50:00
8:15 PM,41.0,26.6,57,30.06,10.0,South,12.7,-,N/A,,Clear,180,2012-12-14 02:15:00
8:35 PM,42.8,26.6,53,30.07,10.0,South,8.1,-,N/A,,Clear,180,2012-12-14 02:35:00
8:50 PM,39.2,24.8,56,30.07,10.0,South,9.2,-,N/A,,Clear,170,2012-12-14 02:50:00
8:55 PM,37.4,26.6,65,30.06,10.0,South,9.2,-,N/A,,Clear,180,2012-12-14 02:55:00
9:15 PM,37.4,26.6,65,30.06,10.0,South,10.4,-,N/A,,Clear,180,2012-12-14 03:15:00
9:35 PM,37.4,26.6,65,30.06,10.0,South,9.2,-,N/A,,Clear,190,2012-12-14 03:35:00
9:55 PM,41.0,28.4,61,30.06,10.0,South,8.1,-,N/A,,Clear,190,2012-12-14 03:55:00
10:15 PM,44.6,28.4,53,30.06,10.0,South,11.5,-,N/A,,Clear,180,2012-12-14 04:15:00
10:35 PM,46.4,30.2,53,30.06,10.0,South,12.7,-,N/A,,Clear,180,2012-12-14 04:35:00
10:55 PM,46.4,30.2,53,30.06,10.0,South,10.4,-,N/A,,Clear,180,2012-12-14 04:55:00
11:15 PM,44.6,30.2,57,30.06,10.0,South,11.5,-,N/A,,Clear,180,2012-12-14 05:15:00
11:35 PM,44.6,30.2,57,30.05,10.0,South,9.2,-,N/A,,Clear,180,2012-12-14 05:35:00
11:55 PM,44.6,30.2,57,30.05,10.0,South,9.2,-,N/A,,Clear,180,2012-12-14 05:55:00